Starlink 5806

operational
NORAD ID: 56007 Int'l Des: 2023-042 Owner: SPXS Country: US Constellation: starlink
LEOCIRCULAR

Starlink 5806について

説明を読み込み中...

リアルタイム位置

3D地球を読み込み中...

次回通過

高度履歴

Altitude vs Time

uPlot chart will show altitude changes over time

軌道要素

1 56007U 23042X 25306.51243759 .00000304 00000-0 37583-4 0 9998
2 56007 43.0052 26.8100 0001363 269.5357 90.5329 15.02537364143788
Epoch: Nov 2, 2025 • Age: 34 hours

現在のステータス

高度 558.7 km
速度 7.59 km/s
衛星直下点 16.45°N, 159.9°E
打ち上げ日 Mar 24, 2023
運用期間 2.6 years
タイプ internet

技術仕様

分類 Payload
質量 305.00 kg
乾燥質量 290.00 kg
総質量 305.00 kg
長さ 0.20 m
直径 2.80 m
スパン 9.00 m
形状 Box + pan
製造者 SPXS
バスタイプ Starlink
フェーズステータス In Orbit
所有者/国 SPXS/US

大規模コンステレーション

Loading constellations...